| time (UTC) | temp F | wind direction | speed knots | gust knots | rain 1hr in | rain 24hr in | rain mn in | humidity % | barometer mb |
| 20260509032413 | 47 | 180 | 1.7 | 9.6 | 0.00 | 0.00 | 0.00 | 10 | 1022.6 |
| 20260509031353 | 47 | 113 | 5.2 | 13.0 | 0.00 | 0.00 | 0.00 | 10 | 1022.6 |
| 20260509030843 | 47 | 180 | 5.2 | 11.3 | 0.00 | 0.00 | 0.00 | 10 | 1022.6 |
| 20260509025823 | 47 | 180 | 1.7 | 9.6 | 0.00 | 0.00 | 0.00 | 10 | 1022.0 |
| 20260509024802 | 49 | 113 | 1.7 | 7.0 | 0.00 | 0.00 | 0.00 | 10 | 1021.8 |
| 20260509024252 | 50 | 135 | 2.6 | 7.8 | 0.00 | 0.00 | 0.00 | 10 | 1021.6 |
| 20260509023232 | 50 | 315 | 1.7 | 6.1 | 0.00 | 0.00 | 0.00 | 10 | 1021.3 |
| 20260509022722 | 50 | 270 | 0.9 | 9.6 | 0.00 | 0.00 | 0.00 | 10 | 1021.3 |
| 20260509022212 | 50 | 315 | 3.5 | 9.6 | 0.00 | 0.00 | 0.00 | 10 | 1021.3 |
| 20260509021702 | 50 | 270 | 2.6 | 6.1 | 0.00 | 0.00 | 0.00 | 10 | 1021.2 |
| 20260509020641 | 50 | 315 | 3.5 | 12.2 | 0.00 | 0.00 | 0.00 | 10 | 1020.9 |
| 20260509020131 | 50 | 225 | 1.7 | 12.2 | 0.00 | 0.00 | 0.00 | 10 | 1021.2 |
| 20260509015622 | 50 | 248 | 3.5 | 12.2 | 0.00 | 0.00 | 0.00 | 10 | 1021.0 |
| 20260509015111 | 49 | 203 | 3.5 | 15.6 | 0.00 | 0.00 | 0.00 | 10 | 1020.7 |
| 20260509014604 | 49 | 203 | 7.8 | 26.9 | 0.00 | 0.00 | 0.00 | 10 | 1020.7 |
| 20260509014051 | 50 | 248 | 13.0 | 26.9 | 0.00 | 0.00 | 0.00 | 10 | 1020.3 |
| 20260509013541 | 49 | 180 | 7.0 | 18.2 | 0.00 | 0.00 | 0.00 | 10 | 1020.3 |
| 20260509012011 | 48 | 158 | 8.7 | 23.5 | 0.00 | 0.00 | 0.00 | 10 | 1019.6 |
| 20260509011457 | 48 | 180 | 12.2 | 23.5 | 0.00 | 0.00 | 0.00 | 10 | 1019.6 |
| 20260509010947 | 48 | 225 | 9.6 | 21.7 | 0.00 | 0.00 | 0.00 | 10 | 1019.4 |
| 20260509010437 | 47 | 135 | 12.2 | 21.7 | 0.00 | 0.00 | 0.00 | 10 | 1019.4 |
| 20260509005930 | 47 | 203 | 8.7 | 20.0 | 0.00 | 0.00 | 0.00 | 10 | 1019.0 |
| 20260509005419 | 47 | 203 | 9.6 | 31.3 | 0.00 | 0.00 | 0.00 | 10 | 1019.1 |
| 20260509004910 | 47 | 203 | 9.6 | 31.3 | 0.00 | 0.00 | 0.00 | 10 | 1019.1 |
| 20260509004400 | 47 | 180 | 7.0 | 26.1 | 0.00 | 0.00 | 0.00 | 10 | 1018.7 |
| 20260509003849 | 47 | 158 | 8.7 | 26.1 | 0.00 | 0.00 | 0.00 | 10 | 1018.5 |
| 20260509003339 | 47 | 270 | 6.1 | 20.0 | 0.00 | 0.00 | 0.00 | 10 | 1018.4 |
| 20260509002320 | 48 | 180 | 11.3 | 20.9 | 0.00 | 0.00 | 0.00 | 10 | 1018.5 |
| 20260509001809 | 47 | 203 | 10.4 | 26.9 | 0.00 | 0.00 | 0.00 | 10 | 1018.3 |
| 20260509001259 | 48 | 180 | 6.1 | 26.9 | 0.00 | 0.00 | 0.00 | 10 | 1018.0 |
| 20260509000749 | 49 | 180 | 13.0 | 23.5 | 0.00 | 0.00 | 0.00 | 10 | 1018.0 |
| 20260508235730 | 51 | 180 | 11.3 | 20.9 | 0.00 | 0.00 | 0.00 | 10 | 1017.5 |
| 20260508235218 | 52 | 203 | 5.2 | 20.9 | 0.00 | 0.00 | 0.00 | 10 | 1017.5 |
| 20260508234708 | 53 | 113 | 7.0 | 14.8 | 0.00 | 0.00 | 0.00 | 10 | 1017.2 |
| 20260508234159 | 53 | 203 | 3.5 | 7.0 | 0.00 | 0.00 | 0.00 | 10 | 1016.9 |
| 20260508233648 | 53 | 225 | 1.7 | 6.1 | 0.00 | 0.00 | 0.00 | 10 | 1016.7 |
| 20260508233138 | 54 | 248 | 1.7 | 6.1 | 0.00 | 0.00 | 0.00 | 10 | 1016.6 |
| 20260508232627 | 54 | 248 | 1.7 | 9.6 | 0.00 | 0.00 | 0.00 | 10 | 1016.3 |
| 20260508232118 | 54 | 203 | 1.7 | 9.6 | 0.00 | 0.00 | 0.00 | 10 | 1016.3 |
| 20260508231608 | 54 | 158 | 3.5 | 7.8 | 0.00 | 0.00 | 0.00 | 10 | 1016.2 |
| 20260508231058 | 54 | 203 | 4.3 | 7.8 | 0.00 | 0.00 | 0.00 | 10 | 1016.2 |
| 20260508230547 | 54 | 135 | 2.6 | 7.0 | 0.00 | 0.00 | 0.00 | 10 | 1015.9 |
| 20260508230037 | 55 | 180 | 1.7 | 7.0 | 0.00 | 0.00 | 0.00 | 10 | 1016.1 |
| 20260508225018 | 55 | 135 | 1.7 | 7.0 | 0.00 | 0.00 | 0.00 | 10 | 1015.4 |
| 20260508224507 | 55 | 113 | 3.5 | 9.6 | 0.00 | 0.00 | 0.00 | 10 | 1015.1 |
| 20260508223957 | 55 | 135 | 3.5 | 9.6 | 0.00 | 0.00 | 0.00 | 10 | 1014.9 |
| 20260508222937 | 56 | 90 | 1.7 | 9.6 | 0.00 | 0.00 | 0.00 | 10 | 1014.8 |
| 20260508222427 | 57 | 113 | 3.5 | 9.6 | 0.00 | 0.00 | 0.00 | 10 | 1014.5 |
| 20260508221917 | 57 | 113 | 2.6 | 7.8 | 0.00 | 0.00 | 0.00 | 10 | 1014.0 |
| 20260508220856 | 57 | 90 | 2.6 | 7.8 | 0.00 | 0.00 | 0.00 | 10 | 1013.9 |
| 20260508220346 | 57 | 90 | 3.5 | 9.6 | 0.00 | 0.00 | 0.00 | 10 | 1013.5 |
| 20260508215836 | 58 | 113 | 4.3 | 9.6 | 0.00 | 0.00 | 0.00 | 10 | 1013.6 |
| 20260508215329 | 58 | 68 | 3.5 | 7.0 | 0.00 | 0.00 | 0.00 | 10 | 1013.4 |
| 20260508214817 | 58 | 90 | 2.6 | 9.6 | 0.00 | 0.00 | 0.00 | 10 | 1013.2 |
| 20260508214306 | 58 | 90 | 3.5 | 9.6 | 0.00 | 0.00 | 0.00 | 10 | 1013.0 |
| 20260508213756 | 59 | 68 | 4.3 | 9.6 | 0.00 | 0.00 | 0.00 | 10 | 1013.0 |
| 20260508213246 | 59 | 68 | 4.3 | 7.8 | 0.00 | 0.00 | 0.00 | 10 | 1012.9 |
| 20260508212735 | 59 | 90 | 3.5 | 7.0 | 0.00 | 0.00 | 0.00 | 10 | 1013.0 |
| 20260508212225 | 59 | 68 | 2.6 | 7.0 | 0.00 | 0.00 | 0.00 | 10 | 1012.7 |
| 20260508211716 | 60 | 68 | 2.6 | 7.0 | 0.00 | 0.00 | 0.00 | 10 | 1012.8 |
| 20260508211206 | 60 | 90 | 2.6 | 7.0 | 0.00 | 0.00 | 0.00 | 10 | 1012.6 |
| 20260508210655 | 60 | 68 | 4.3 | 6.1 | 0.00 | 0.00 | 0.00 | 10 | 1012.7 |
| 20260508210146 | 61 | 68 | 3.5 | 5.2 | 0.00 | 0.00 | 0.00 | 10 | 1012.7 |
| 20260508205636 | 61 | 113 | 3.5 | 6.1 | 0.00 | 0.00 | 0.00 | 10 | 1012.5 |
| 20260508205124 | 61 | 68 | 2.6 | 6.1 | 0.00 | 0.00 | 0.00 | 10 | 1012.7 |
| 20260508204614 | 62 | 68 | 2.6 | 6.1 | 0.00 | 0.00 | 0.00 | 10 | 1012.8 |
| 20260508204105 | 62 | 68 | 2.6 | 5.2 | 0.00 | 0.00 | 0.00 | 10 | 1012.7 |
| 20260508203555 | 62 | 68 | 1.7 | 5.2 | 0.00 | 0.00 | 0.00 | 10 | 1012.8 |
| 20260508203045 | 62 | 68 | 1.7 | 5.2 | 0.00 | 0.00 | 0.00 | 10 | 1012.8 |
| 20260508202533 | 62 | 23 | 1.7 | 6.1 | 0.00 | 0.00 | 0.00 | 10 | 1012.5 |
| 20260508202024 | 62 | 68 | 2.6 | 6.1 | 0.00 | 0.00 | 0.00 | 10 | 1012.7 |
| 20260508201515 | 62 | 68 | 2.6 | 6.1 | 0.00 | 0.00 | 0.00 | 10 | 1012.7 |
| 20260508201003 | 62 | 90 | 1.7 | 6.1 | 0.00 | 0.00 | 0.00 | 10 | 1012.8 |
| 20260508200458 | 63 | 90 | 1.7 | 3.5 | 0.00 | 0.00 | 0.00 | 10 | 1012.9 |
| 20260508195943 | 64 | 113 | 0.0 | 3.5 | 0.00 | 0.00 | 0.00 | 10 | 1012.8 |
| 20260508195433 | 64 | 203 | 1.7 | 3.5 | 0.00 | 0.00 | 0.00 | 10 | 1012.8 |
| 20260508194923 | 63 | 180 | 0.9 | 3.5 | 0.00 | 0.00 | 0.00 | 10 | 1013.0 |
| 20260508193903 | 64 | 90 | 1.7 | 1.7 | 0.00 | 0.00 | 0.00 | 10 | 1012.8 |
| 20260508193352 | 64 | 135 | 1.7 | 1.7 | 0.00 | 0.00 | 0.00 | 10 | 1012.8 |
| 20260508192842 | 64 | 135 | 1.7 | 1.7 | 0.00 | 0.00 | 0.00 | 10 | 1012.9 |
| 20260508192333 | 64 | 113 | 0.9 | 3.5 | 0.00 | 0.00 | 0.00 | 10 | 1012.6 |
| 20260508191823 | 63 | 113 | 1.7 | 3.5 | 0.00 | 0.00 | 0.00 | 10 | 1013.0 |
| 20260508191312 | 63 | 135 | 1.7 | 3.5 | 0.00 | 0.00 | 0.00 | 10 | 1013.0 |
| 20260508190802 | 63 | 113 | 2.6 | 3.5 | 0.00 | 0.00 | 0.00 | 10 | 1013.0 |
| 20260508190252 | 63 | 113 | 1.7 | 3.5 | 0.00 | 0.00 | 0.00 | 10 | 1013.1 |
| 20260508185742 | 63 | 113 | 2.6 | 3.5 | 0.00 | 0.00 | 0.00 | 10 | 1013.0 |
| 20260508185232 | 63 | 113 | 2.6 | 3.5 | 0.00 | 0.00 | 0.00 | 10 | 1013.1 |
| 20260508184722 | 63 | 113 | 2.6 | 3.5 | 0.00 | 0.00 | 0.00 | 10 | 1013.2 |
| 20260508184212 | 63 | 90 | 1.7 | 5.2 | 0.00 | 0.00 | 0.00 | 10 | 1013.0 |
| 20260508183151 | 62 | 113 | 1.7 | 3.5 | 0.00 | 0.00 | 0.00 | 10 | 1013.2 |
| 20260508182131 | 62 | 113 | 1.7 | 3.5 | 0.00 | 0.00 | 0.00 | 10 | 1013.1 |
| 20260508181114 | 63 | 135 | 0.9 | 3.5 | 0.00 | 0.00 | 0.00 | 10 | 1013.2 |
| 20260508180601 | 64 | 203 | 0.0 | 5.2 | 0.00 | 0.00 | 0.00 | 10 | 1013.6 |
| 20260508180050 | 62 | 90 | 1.7 | 9.6 | 0.00 | 0.00 | 0.00 | 10 | 1013.5 |
| 20260508175541 | 62 | 23 | 3.5 | 9.6 | 0.00 | 0.00 | 0.00 | 10 | 1013.5 |
| 20260508175030 | 61 | 90 | 3.5 | 7.0 | 0.00 | 0.00 | 0.00 | 10 | 1013.9 |
| 20260508174521 | 63 | 90 | 2.6 | 6.1 | 0.00 | 0.00 | 0.00 | 10 | 1013.9 |
| 20260508174010 | 63 | 158 | 1.7 | 3.5 | 0.00 | 0.00 | 0.00 | 10 | 1014.0 |
| 20260508173501 | 62 | 113 | 1.7 | 3.5 | 0.00 | 0.00 | 0.00 | 10 | 1014.1 |
| 20260508172951 | 62 | 90 | 1.7 | 3.5 | 0.00 | 0.00 | 0.00 | 10 | 1014.0 |
| 20260508172440 | 63 | 68 | 1.7 | 3.5 | 0.00 | 0.00 | 0.00 | 10 | 1014.3 |
| 20260508171930 | 63 | 135 | 1.7 | 3.5 | 0.00 | 0.00 | 0.00 | 10 | 1014.5 |
| 20260508170910 | 63 | 203 | 1.7 | 3.5 | 0.00 | 0.00 | 0.00 | 10 | 1014.6 |
| 20260508170400 | 64 | 203 | 0.9 | 5.2 | 0.00 | 0.00 | 0.00 | 10 | 1014.7 |
| 20260508165849 | 63 | 180 | 1.7 | 6.1 | 0.00 | 0.00 | 0.00 | 10 | 1014.8 |
| 20260508165340 | 62 | 225 | 3.5 | 7.8 | 0.00 | 0.00 | 0.00 | 10 | 1015.0 |
| 20260508164830 | 62 | 158 | 3.5 | 7.8 | 0.00 | 0.00 | 0.00 | 10 | 1015.0 |
| 20260508164319 | 62 | 158 | 4.3 | 7.8 | 0.00 | 0.00 | 0.00 | 10 | 1015.1 |
| 20260508163259 | 61 | 203 | 4.3 | 7.8 | 0.00 | 0.00 | 0.00 | 10 | 1015.3 |
| 20260508162749 | 62 | 203 | 3.5 | 11.3 | 0.00 | 0.00 | 0.00 | 10 | 1015.2 |
| 20260508162238 | 61 | 113 | 2.6 | 11.3 | 0.00 | 0.00 | 0.00 | 10 | 1015.4 |
| 20260508161729 | 61 | 158 | 3.5 | 11.3 | 0.00 | 0.00 | 0.00 | 10 | 1015.4 |
| 20260508161218 | 61 | 180 | 4.3 | 11.3 | 0.00 | 0.00 | 0.00 | 10 | 1015.5 |
| 20260508160708 | 61 | 180 | 2.6 | 9.6 | 0.00 | 0.00 | 0.00 | 10 | 1015.7 |
| 20260508160158 | 60 | 180 | 4.3 | 9.6 | 0.00 | 0.00 | 0.00 | 10 | 1015.7 |
| 20260508155648 | 61 | 113 | 3.5 | 7.8 | 0.00 | 0.00 | 0.00 | 10 | 1016.1 |
| 20260508155138 | 60 | 203 | 2.6 | 12.2 | 0.00 | 0.00 | 0.00 | 10 | 1016.2 |
| 20260508154628 | 60 | 180 | 7.0 | 13.0 | 0.00 | 0.00 | 0.00 | 10 | 1016.1 |
| 20260508154119 | 60 | 225 | 6.1 | 14.8 | 0.00 | 0.00 | 0.00 | 10 | 1016.2 |
| 20260508153608 | 59 | 180 | 9.6 | 14.8 | 0.00 | 0.00 | 0.00 | 10 | 1016.3 |
| 20260508153058 | 59 | 180 | 4.3 | 13.0 | 0.00 | 0.00 | 0.00 | 10 | 1016.4 |
| 20260508152548 | 58 | 203 | 7.0 | 14.8 | 0.00 | 0.00 | 0.00 | 10 | 1016.4 |
| 20260508152038 | 58 | 158 | 7.8 | 14.8 | 0.00 | 0.00 | 0.00 | 10 | 1016.3 |
| 20260508151527 | 58 | 158 | 7.0 | 14.8 | 0.00 | 0.00 | 0.00 | 10 | 1016.6 |
| 20260508151017 | 59 | 203 | 5.2 | 14.8 | 0.00 | 0.00 | 0.00 | 10 | 1016.5 |
| 20260508145957 | 58 | 225 | 6.1 | 15.6 | 0.00 | 0.00 | 0.00 | 10 | 1016.7 |
| 20260508145446 | 58 | 203 | 7.0 | 17.4 | 0.00 | 0.00 | 0.00 | 10 | 1016.6 |
| 20260508144937 | 58 | 158 | 6.1 | 17.4 | 0.00 | 0.00 | 0.00 | 10 | 1016.8 |
| 20260508144427 | 58 | 203 | 3.5 | 12.2 | 0.00 | 0.00 | 0.00 | 10 | 1016.7 |
| 20260508143406 | 58 | 135 | 7.0 | 13.9 | 0.00 | 0.00 | 0.00 | 10 | 1016.9 |
| 20260508141326 | 58 | 203 | 7.0 | 13.9 | 0.00 | 0.00 | 0.00 | 10 | 1017.0 |
| 20260508140816 | 57 | 203 | 3.5 | 13.9 | 0.00 | 0.00 | 0.00 | 10 | 1017.0 |
| 20260508140306 | 58 | 203 | 6.1 | 13.0 | 0.00 | 0.00 | 0.00 | 10 | 1017.1 |
| 20260508135756 | 58 | 225 | 4.3 | 14.8 | 0.00 | 0.00 | 0.00 | 10 | 1017.0 |
| 20260508134735 | 57 | 158 | 6.1 | 13.9 | 0.00 | 0.00 | 0.00 | 10 | 1017.1 |
| 20260508134225 | 57 | 180 | 4.3 | 13.9 | 0.00 | 0.00 | 0.00 | 10 | 1017.1 |
| 20260508133716 | 57 | 225 | 3.5 | 13.9 | 0.00 | 0.00 | 0.00 | 10 | 1017.4 |
| 20260508133205 | 57 | 158 | 4.3 | 13.9 | 0.00 | 0.00 | 0.00 | 10 | 1017.0 |
| 20260508131634 | 55 | 158 | 3.5 | 9.6 | 0.00 | 0.00 | 0.00 | 10 | 1017.1 |
| 20260508131125 | 55 | 90 | 3.5 | 7.0 | 0.00 | 0.00 | 0.00 | 10 | 1017.1 |
| 20260508130615 | 55 | 180 | 2.6 | 7.8 | 0.00 | 0.00 | 0.00 | 10 | 1017.2 |
| 20260508130104 | 54 | 113 | 2.6 | 7.8 | 0.00 | 0.00 | 0.00 | 10 | 1016.9 |
| 20260508125554 | 54 | 135 | 1.7 | 7.8 | 0.00 | 0.00 | 0.00 | 10 | 1017.1 |
| 20260508125045 | 53 | 180 | 1.7 | 7.8 | 0.00 | 0.00 | 0.00 | 10 | 1017.0 |
| 20260508124533 | 53 | 135 | 3.5 | 7.0 | 0.00 | 0.00 | 0.00 | 10 | 1017.1 |
| 20260508124024 | 53 | 203 | 1.7 | 7.0 | 0.00 | 0.00 | 0.00 | 10 | 1017.2 |
| 20260508123004 | 52 | 180 | 2.6 | 6.1 | 0.00 | 0.00 | 0.00 | 10 | 1017.6 |
| 20260508122454 | 52 | 158 | 1.7 | 6.1 | 0.00 | 0.00 | 0.00 | 10 | 1017.4 |
| 20260508121943 | 52 | 135 | 1.7 | 6.1 | 0.00 | 0.00 | 0.00 | 10 | 1017.4 |
| 20260508121435 | 51 | 158 | 1.7 | 6.1 | 0.00 | 0.00 | 0.00 | 10 | 1017.5 |
| 20260508120413 | 50 | 180 | 1.7 | 6.1 | 0.00 | 0.00 | 0.00 | 10 | 1017.6 |
| 20260508115903 | 50 | 135 | 0.9 | 6.1 | 0.00 | 0.00 | 0.00 | 10 | 1017.3 |
| 20260508115353 | 50 | 203 | 1.7 | 6.1 | 0.00 | 0.00 | 0.00 | 10 | 1017.2 |
| 20260508114843 | 49 | 180 | 1.7 | 7.0 | 0.00 | 0.00 | 0.00 | 10 | 1017.5 |
| 20260508113822 | 49 | 203 | 3.5 | 7.0 | 0.00 | 0.00 | 0.00 | 10 | 1017.2 |
| 20260508113313 | 49 | 203 | 4.3 | 7.0 | 0.00 | 0.00 | 0.00 | 10 | 1017.2 |
| 20260508112802 | 49 | 113 | 0.9 | 5.2 | 0.00 | 0.00 | 0.00 | 10 | 1017.1 |
| 20260508111742 | 48 | 203 | 1.7 | 3.5 | 0.00 | 0.00 | 0.00 | 10 | 1016.9 |
| 20260508111232 | 47 | 225 | 1.7 | 3.5 | 0.00 | 0.00 | 0.00 | 10 | 1016.8 |
| 20260508110722 | 47 | 180 | 0.9 | 7.0 | 0.00 | 0.00 | 0.00 | 10 | 1017.1 |
| 20260508105702 | 47 | 135 | 3.5 | 7.0 | 0.00 | 0.00 | 0.00 | 10 | 1016.9 |
| 20260508105151 | 47 | 180 | 3.5 | 9.6 | 0.00 | 0.00 | 0.00 | 10 | 1016.7 |
| 20260508104644 | 47 | 203 | 1.7 | 9.6 | 0.00 | 0.00 | 0.00 | 10 | 1017.0 |
| 20260508104131 | 47 | 203 | 3.5 | 9.6 | 0.00 | 0.00 | 0.00 | 10 | 1016.8 |
| 20260508103622 | 47 | 158 | 3.5 | 13.0 | 0.00 | 0.00 | 0.00 | 10 | 1017.0 |
| 20260508103111 | 48 | 248 | 5.2 | 13.0 | 0.00 | 0.00 | 0.00 | 10 | 1016.6 |
| 20260508102601 | 47 | 180 | 4.3 | 12.2 | 0.00 | 0.00 | 0.00 | 10 | 1016.6 |
| 20260508102051 | 47 | 203 | 3.5 | 11.3 | 0.00 | 0.00 | 0.00 | 10 | 1016.5 |
| 20260508101541 | 47 | 180 | 3.5 | 9.6 | 0.00 | 0.00 | 0.00 | 10 | 1016.7 |
| 20260508101031 | 47 | 203 | 2.6 | 9.6 | 0.00 | 0.00 | 0.00 | 10 | 1016.4 |
| 20260508100520 | 47 | 203 | 2.6 | 12.2 | 0.00 | 0.00 | 0.00 | 10 | 1016.4 |
| 20260508100010 | 47 | 203 | 3.5 | 13.0 | 0.00 | 0.00 | 0.00 | 10 | 1016.3 |
| 20260508095500 | 48 | 225 | 4.3 | 13.0 | 0.00 | 0.00 | 0.00 | 10 | 1016.2 |
| 20260508094950 | 48 | 248 | 4.3 | 13.9 | 0.00 | 0.00 | 0.00 | 10 | 1016.3 |
| 20260508094437 | 48 | 180 | 7.0 | 13.9 | 0.00 | 0.00 | 0.00 | 10 | 1016.1 |
| 20260508093930 | 48 | 158 | 6.1 | 13.0 | 0.00 | 0.00 | 0.00 | 10 | 1016.1 |
| 20260508093420 | 48 | 248 | 5.2 | 12.2 | 0.00 | 0.00 | 0.00 | 10 | 1016.3 |
| 20260508092910 | 48 | 225 | 4.3 | 9.6 | 0.00 | 0.00 | 0.00 | 10 | 1016.4 |
| 20260508092401 | 47 | 180 | 4.3 | 9.6 | 0.00 | 0.00 | 0.00 | 10 | 1016.2 |
| 20260508091849 | 47 | 203 | 3.5 | 9.6 | 0.00 | 0.00 | 0.00 | 10 | 1016.2 |
| 20260508091339 | 48 | 225 | 4.3 | 11.3 | 0.00 | 0.00 | 0.00 | 10 | 1016.3 |
| 20260508090829 | 47 | 180 | 3.5 | 12.2 | 0.00 | 0.00 | 0.00 | 10 | 1016.2 |
| 20260508090319 | 47 | 203 | 1.7 | 12.2 | 0.00 | 0.00 | 0.00 | 10 | 1016.5 |
| 20260508085809 | 48 | 225 | 6.1 | 11.3 | 0.00 | 0.00 | 0.00 | 10 | 1016.4 |
| 20260508083729 | 48 | 158 | 3.5 | 7.8 | 0.00 | 0.00 | 0.00 | 10 | 1016.5 |
| 20260508083219 | 48 | 203 | 1.7 | 9.6 | 0.00 | 0.00 | 0.00 | 10 | 1016.0 |
| 20260508082708 | 48 | 180 | 5.2 | 9.6 | 0.00 | 0.00 | 0.00 | 10 | 1016.4 |
| 20260508081648 | 49 | 203 | 2.6 | 13.0 | 0.00 | 0.00 | 0.00 | 10 | 1016.3 |
| 20260508081137 | 49 | 113 | 3.5 | 13.0 | 0.00 | 0.00 | 0.00 | 10 | 1016.1 |
| 20260508080627 | 49 | 203 | 1.7 | 13.0 | 0.00 | 0.00 | 0.00 | 10 | 1016.3 |
| 20260508080118 | 49 | 203 | 7.0 | 13.0 | 0.00 | 0.00 | 0.00 | 10 | 1016.1 |
| 20260508075608 | 49 | 225 | 7.8 | 19.1 | 0.00 | 0.00 | 0.00 | 10 | 1016.3 |
| 20260508075058 | 49 | 225 | 5.2 | 19.1 | 0.00 | 0.00 | 0.00 | 10 | 1016.2 |
| 20260508074548 | 49 | 248 | 7.0 | 13.9 | 0.00 | 0.00 | 0.00 | 10 | 1016.4 |
| 20260508073523 | 49 | 158 | 3.5 | 14.8 | 0.00 | 0.00 | 0.00 | 10 | 1016.3 |
| 20260508073014 | 49 | 225 | 2.6 | 12.2 | 0.00 | 0.00 | 0.00 | 10 | 1016.4 |
| 20260508071956 | 49 | 225 | 3.5 | 14.8 | 0.00 | 0.00 | 0.00 | 10 | 1016.6 |
| 20260508070425 | 49 | 225 | 3.5 | 0.0 | 0.00 | 0.00 | 0.00 | 10 | 1016.4 |
| 20260508070224 | 49 | 270 | 5.2 | 0.0 | 0.00 | 0.00 | 0.00 | 10 | 1016.5 |
| 20260508065535 | 50 | 180 | 3.5 | 12.2 | 0.00 | 0.00 | 0.00 | 10 | 1016.4 |
| 20260508065025 | 50 | 203 | 3.5 | 13.9 | 0.00 | 0.00 | 0.00 | 10 | 1016.6 |
| 20260508064516 | 50 | 225 | 3.5 | 14.8 | 0.00 | 0.00 | 0.00 | 10 | 1016.5 |
| 20260508064005 | 50 | 203 | 8.7 | 18.2 | 0.00 | 0.00 | 0.00 | 10 | 1016.5 |
| 20260508062945 | 50 | 203 | 4.3 | 12.2 | 0.00 | 0.00 | 0.00 | 10 | 1016.8 |
| 20260508062435 | 50 | 225 | 1.7 | 13.0 | 0.00 | 0.00 | 0.00 | 10 | 1016.7 |
| 20260508061925 | 50 | 248 | 3.5 | 13.0 | 0.00 | 0.00 | 0.00 | 10 | 1016.5 |
| 20260508061415 | 50 | 203 | 4.3 | 12.2 | 0.00 | 0.00 | 0.00 | 10 | 1016.7 |
| 20260508060904 | 50 | 180 | 3.5 | 15.6 | 0.00 | 0.00 | 0.00 | 10 | 1017.0 |
| 20260508060354 | 50 | 180 | 2.6 | 15.6 | 0.00 | 0.00 | 0.00 | 10 | 1016.9 |
| 20260508055844 | 50 | 203 | 4.3 | 13.9 | 0.00 | 0.00 | 0.00 | 10 | 1016.9 |
| 20260508055335 | 50 | 225 | 3.5 | 13.9 | 0.00 | 0.00 | 0.00 | 10 | 1016.8 |
| 20260508054824 | 50 | 203 | 7.0 | 14.8 | 0.00 | 0.00 | 0.00 | 10 | 1016.3 |
| 20260508054314 | 50 | 158 | 7.0 | 14.8 | 0.00 | 0.00 | 0.00 | 10 | 1016.5 |
| 20260508053804 | 50 | 203 | 7.0 | 13.0 | 0.00 | 0.00 | 0.00 | 10 | 1016.8 |
| 20260508053254 | 50 | 203 | 6.1 | 17.4 | 0.00 | 0.00 | 0.00 | 10 | 1016.8 |
| 20260508052744 | 51 | 158 | 5.2 | 17.4 | 0.00 | 0.00 | 0.00 | 10 | 1016.6 |
| 20260508052230 | 50 | 158 | 3.5 | 9.6 | 0.00 | 0.00 | 0.00 | 10 | 1016.9 |
| 20260508051724 | 50 | 158 | 5.2 | 9.6 | 0.00 | 0.00 | 0.00 | 10 | 1016.8 |
| 20260508051210 | 50 | 248 | 6.1 | 9.6 | 0.00 | 0.00 | 0.00 | 10 | 1016.9 |
| 20260508050700 | 50 | 158 | 1.7 | 9.6 | 0.00 | 0.00 | 0.00 | 10 | 1017.2 |
| 20260508050150 | 50 | 293 | 3.5 | 9.6 | 0.00 | 0.00 | 0.00 | 10 | 1016.9 |
| 20260508045640 | 50 | 270 | 5.2 | 9.6 | 0.00 | 0.00 | 0.00 | 10 | 1017.0 |
| 20260508044620 | 50 | 203 | 2.6 | 9.6 | 0.00 | 0.00 | 0.00 | 10 | 1017.1 |
| 20260508044110 | 51 | 180 | 3.5 | 11.3 | 0.00 | 0.00 | 0.00 | 10 | 1016.8 |
| 20260508043559 | 51 | 158 | 3.5 | 13.9 | 0.00 | 0.00 | 0.00 | 10 | 1016.6 |
| 20260508043049 | 51 | 158 | 4.3 | 13.9 | 0.00 | 0.00 | 0.00 | 10 | 1016.6 |
| 20260508042539 | 52 | 135 | 4.3 | 9.6 | 0.00 | 0.00 | 0.00 | 10 | 1016.6 |
| 20260508041532 | 53 | 180 | 5.2 | 13.0 | 0.00 | 0.00 | 0.00 | 10 | 1016.6 |
| 20260508041012 | 53 | 135 | 3.5 | 13.9 | 0.00 | 0.00 | 0.00 | 10 | 1016.6 |
| 20260508040502 | 53 | 203 | 4.3 | 13.9 | 0.00 | 0.00 | 0.00 | 10 | 1016.4 |
| 20260508035951 | 53 | 203 | 7.0 | 13.9 | 0.00 | 0.00 | 0.00 | 10 | 1016.5 |
| 20260508035442 | 53 | 135 | 6.1 | 12.2 | 0.00 | 0.00 | 0.00 | 10 | 1016.5 |
| 20260508034932 | 53 | 158 | 7.0 | 11.3 | 0.00 | 0.00 | 0.00 | 10 | 1016.4 |
| 20260508034421 | 52 | 180 | 3.5 | 13.0 | 0.00 | 0.00 | 0.00 | 10 | 1016.1 |
| 20260508033911 | 52 | 180 | 5.2 | 13.0 | 0.00 | 0.00 | 0.00 | 10 | 1016.2 |
| 20260508033401 | 51 | 158 | 7.0 | 9.6 | 0.00 | 0.00 | 0.00 | 10 | 1016.3 |